Detroit, MI

4:40 PM EST on February 24, 2017 (GMT -0500)
Detroit Metro Wayne County

Weather History for KDTW - April, 2013

Change the Weather History Date:

Wednesday, April 10, 2013

  Actual Average Record
Temperature  
Mean Temperature 43 °F 47 °F  
Max Temperature 46 °F 57 °F 86 °F (1977)
Min Temperature 39 °F 38 °F 20 °F (1989)
Degree Days  
Heating Degree Days 22 18  
Month to date heating degree days 226 196  
Since 1 July heating degree days 5444 5611  
Cooling Degree Days 0 0  
Month to date cooling degree days 0 0  
Year to date cooling degree days 0 0  
Moisture  
Dew Point 41 °F    
Average Humidity 90    
Maximum Humidity 93    
Minimum Humidity 86    
Precipitation  
Precipitation 0.17 in 0.10 in 1.21 in (1939)
Month to date precipitation 0.29 0.94  
Year to date precipitation 7.31 7.20  
Snow  
Snow 0.00 in 0.10 in 3.00 in (1923)
Month to date snowfall T 1.0  
Since 1 July snowfall 47.6 41.8  
Snow Depth 0.00 in    
Sea Level Pressure  
Sea Level Pressure 29.95 in    
Wind  
Wind Speed 9 mph (NNE)    
Max Wind Speed 24 mph    
Max Gust Speed 31 mph    
Visibility 5 miles    
Events Rain , Thunderstorm    
T = Trace of Precipitation, MM = Missing Value Source: NWS Daily Summary

Daily Weather History Graph

Daily Weather History Graph

Search for Another Location

Airport or City:

Trip Planner

Search our weather history database for the weather conditions in past years. The results will help you decide how hot, cold, wet, or windy it might be!

Date:

Astronomy

Apr. 10, 2013 Rise Set
Actual Time 7:00 AM EDT 8:09 PM EDT
Civil Twilight 6:31 AM EDT 8:38 PM EDT
Nautical Twilight 5:57 AM EDT 9:12 PM EDT
Astronomical Twilight 5:21 AM EDT 9:49 PM EDT
Moon 6:55 AM EDT (4/10) 8:45 PM EDT (4/10)
Length of Visible Light 14h 06m
Length of Day
13h 09m
New Moon, 0% of the Moon is Illuminated
Apr 10
New Moon
Apr 18
First Quarter
Apr 25
Full
May 2
Last Quarter
May 9
New

Hourly Weather History & Observations

Time (EDT) Temp. Windchill Dew Point Humidity Pressure Visibility Wind Dir Wind Speed Gust Speed Precip Events Conditions
12:53 AM 46.0 °F 40.2 °F 42.1 °F 86% 29.99 in 6.0 mi North 12.7 mph - N/A   Overcast
1:53 AM 45.0 °F 41.2 °F 41.0 °F 86% 30.00 in 7.0 mi North 6.9 mph - N/A   Overcast
2:42 AM 44.6 °F 40.7 °F 41.0 °F 87% 29.98 in 10.0 mi North 6.9 mph - N/A   Overcast
2:53 AM 45.0 °F 39.7 °F 41.0 °F 86% 29.98 in 10.0 mi North 10.4 mph - N/A   Overcast
3:53 AM 45.0 °F 40.1 °F 41.0 °F 86% 29.96 in 10.0 mi NNE 9.2 mph - N/A   Overcast
4:00 AM 44.6 °F 39.7 °F 41.0 °F 87% 29.94 in 10.0 mi NNE 9.2 mph - N/A   Overcast
4:53 AM 45.0 °F 42.6 °F 41.0 °F 86% 29.96 in 10.0 mi NE 4.6 mph - N/A   Overcast
5:53 AM 44.1 °F 40.8 °F 41.0 °F 89% 29.94 in 7.0 mi NNE 5.8 mph - 0.00 in Rain Light Rain
6:16 AM 44.6 °F 40.7 °F 41.0 °F 87% 29.93 in 7.0 mi NNE 6.9 mph - 0.01 in Rain , Thunderstorm Light Thunderstorms and Rain
6:38 AM 44.6 °F 42.2 °F 41.0 °F 87% 29.94 in 7.0 mi Variable 4.6 mph - 0.01 in Rain Light Rain
6:53 AM 44.1 °F 41.5 °F 41.0 °F 89% 29.95 in 5.0 mi North 4.6 mph - 0.01 in   Overcast
7:13 AM 44.6 °F 41.4 °F 41.0 °F 87% 29.93 in 3.0 mi NE 5.8 mph - 0.00 in Rain Light Rain
7:53 AM 44.1 °F 38.1 °F 41.0 °F 89% 29.96 in 4.0 mi North 11.5 mph - 0.00 in Rain Light Rain
8:42 AM 42.8 °F 37.0 °F 39.2 °F 87% 29.95 in 5.0 mi NNE 10.4 mph - 0.00 in Rain Light Rain
8:53 AM 42.1 °F 35.7 °F 39.0 °F 89% 29.96 in 5.0 mi North 11.5 mph - 0.00 in Rain Light Rain
9:53 AM 42.1 °F 35.2 °F 39.9 °F 92% 29.96 in 2.5 mi NNE 12.7 mph - 0.00 in   Overcast
10:53 AM 43.0 °F 38.8 °F 41.0 °F 93% 29.92 in 2.5 mi ENE 6.9 mph - 0.00 in Rain Light Rain
11:34 AM 44.6 °F 41.4 °F 42.8 °F 93% 29.92 in 3.0 mi NE 5.8 mph - 0.00 in   Overcast
11:53 AM 44.1 °F 40.8 °F 42.1 °F 93% 29.92 in 3.0 mi ENE 5.8 mph - 0.00 in   Overcast
12:41 PM 44.6 °F 38.1 °F 42.8 °F 93% 29.97 in 4.0 mi NNW 13.8 mph 26.5 mph 0.01 in Rain Light Rain
12:53 PM 44.1 °F 38.6 °F 42.1 °F 93% 29.95 in 4.0 mi North 10.4 mph - 0.01 in Rain Light Rain
1:02 PM 44.6 °F 39.7 °F 42.8 °F 93% 29.95 in 4.0 mi North 9.2 mph - 0.01 in Rain Light Rain
1:09 PM 44.6 °F 42.2 °F 42.8 °F 93% 29.94 in 6.0 mi Variable 4.6 mph - 0.01 in Rain Light Rain
1:28 PM 44.6 °F 42.2 °F 42.8 °F 93% 29.91 in 3.0 mi East 4.6 mph - 0.04 in Rain Heavy Rain
1:53 PM 46.0 °F 43.1 °F 44.1 °F 93% 29.91 in 8.0 mi Variable 5.8 mph - 0.07 in Rain Light Rain
2:08 PM 46.4 °F 44.3 °F 42.8 °F 87% 29.88 in 6.0 mi NE 4.6 mph - 0.00 in Rain , Thunderstorm Light Thunderstorms and Rain
2:53 PM 46.0 °F 42.5 °F 43.0 °F 89% 29.88 in 8.0 mi NNE 6.9 mph - 0.05 in Rain Light Rain
3:53 PM 46.0 °F 39.9 °F 42.1 °F 86% 29.91 in 8.0 mi North 13.8 mph - 0.00 in   Overcast
4:53 PM 45.0 °F 39.7 °F 42.1 °F 90% 29.95 in 3.0 mi North 10.4 mph - 0.00 in Rain Light Rain
5:53 PM 45.0 °F 38.9 °F 41.0 °F 86% 29.95 in 3.0 mi North 12.7 mph - 0.00 in   Overcast
6:53 PM 43.0 °F 37.2 °F 39.9 °F 89% 29.96 in 3.0 mi North 10.4 mph - 0.00 in Rain Light Rain
7:53 PM 42.1 °F 35.2 °F 39.0 °F 89% 29.97 in 3.0 mi NNE 12.7 mph - 0.02 in   Overcast
8:53 PM 42.1 °F 37.1 °F 39.0 °F 89% 29.98 in 3.0 mi North 8.1 mph - N/A   Overcast
9:53 PM 41.0 °F 35.2 °F 39.0 °F 93% 29.96 in 3.0 mi NNE 9.2 mph - N/A   Overcast
10:53 PM 41.0 °F 35.2 °F 37.9 °F 89% 29.98 in 3.0 mi NNE 9.2 mph - N/A   Overcast
11:53 PM 39.9 °F 34.5 °F 37.9 °F 93% 29.98 in 3.0 mi NNE 8.1 mph - 0.01 in Rain Light Rain